| time (UTC) | temp F | wind direction | speed MPH | gust MPH | rain 1hr in | rain 24hr in | rain mn in | humidity % | barometer mb |
| 20260906124518 | 72 | 321 | 1.0 | 4.0 | 0.00 | 0.00 | 0.00 | 81 | 1012.5 |
| 20260906123017 | 72 | 166 | 0.0 | 1.0 | 0.00 | 0.00 | 0.00 | 84 | 1012.3 |
| 20260906121514 | 72 | 275 | 1.0 | 2.0 | 0.00 | 0.00 | 0.00 | 84 | 1012.0 |
| 20260906120014 | 72 | 34 | 0.0 | 4.0 | 0.00 | 0.00 | 0.00 | 84 | 1011.6 |
| 20260906114512 | 71 | 225 | 0.0 | 1.0 | 0.00 | 0.00 | 0.00 | 84 | 1011.7 |
| 20260906113013 | 72 | 210 | 0.0 | 0.0 | 0.00 | 0.00 | 0.00 | 85 | 1011.5 |
| 20260906111519 | 72 | 209 | 1.0 | 2.0 | 0.00 | 0.00 | 0.00 | 84 | 1011.6 |
| 20260906110014 | 72 | 220 | 0.0 | 0.0 | 0.00 | 0.00 | 0.00 | 84 | 1011.5 |
| 20260906104513 | 72 | 220 | 0.0 | 1.0 | 0.00 | 0.00 | 0.00 | 83 | 1011.5 |
| 20260906103009 | 72 | 155 | 0.0 | 2.0 | 0.00 | 0.00 | 0.00 | 83 | 1011.7 |
| 20260906101507 | 73 | 205 | 0.0 | 2.0 | 0.00 | 0.00 | 0.00 | 82 | 1011.7 |
| 20260906100004 | 72 | 203 | 0.0 | 0.0 | 0.00 | 0.00 | 0.00 | 80 | 1011.8 |
| 20260906094503 | 72 | 207 | 0.0 | 0.0 | 0.00 | 0.00 | 0.00 | 77 | 1011.7 |
| 20260906093002 | 72 | 207 | 0.0 | 0.0 | 0.00 | 0.00 | 0.00 | 77 | 1011.8 |
| 20260906091501 | 72 | 240 | 0.0 | 1.0 | 0.00 | 0.00 | 0.00 | 78 | 1011.8 |
| 20260906090122 | 72 | 167 | 0.0 | 1.0 | 0.00 | 0.00 | 0.00 | 75 | 1011.9 |
| 20260906084600 | 72 | 290 | 0.0 | 2.0 | 0.00 | 0.00 | 0.00 | 75 | 1011.9 |
| 20260906083059 | 72 | 277 | 0.0 | 2.0 | 0.00 | 0.00 | 0.00 | 76 | 1011.9 |
| 20260906081600 | 71 | 271 | 0.0 | 0.0 | 0.00 | 0.00 | 0.00 | 75 | 1011.9 |
| 20260906080056 | 72 | 218 | 0.0 | 1.0 | 0.00 | 0.00 | 0.00 | 78 | 1012.0 |
| 20260906074554 | 72 | 180 | 0.0 | 0.0 | 0.00 | 0.00 | 0.00 | 79 | 1011.9 |
| 20260906073052 | 72 | 180 | 0.0 | 1.0 | 0.00 | 0.00 | 0.00 | 77 | 1012.0 |
| 20260906071559 | 72 | 188 | 0.0 | 2.0 | 0.00 | 0.00 | 0.00 | 77 | 1012.1 |
| 20260906070048 | 72 | 184 | 1.0 | 2.0 | 0.00 | 0.00 | 0.00 | 75 | 1012.1 |
| 20260906064547 | 72 | 202 | 0.0 | 0.0 | 0.00 | 0.00 | 0.00 | 74 | 1012.0 |
| 20260906063047 | 72 | 282 | 0.0 | 0.0 | 0.00 | 0.00 | 0.00 | 74 | 1011.8 |
| 20260906061547 | 73 | 248 | 0.0 | 0.0 | 0.00 | 0.00 | 0.00 | 71 | 1011.9 |
| 20260906060045 | 72 | 248 | 0.0 | 0.0 | 0.00 | 0.00 | 0.00 | 70 | 1012.0 |
| 20260906054550 | 72 | 250 | 0.0 | 2.0 | 0.00 | 0.00 | 0.00 | 69 | 1012.1 |
| 20260906053044 | 72 | 259 | 1.0 | 2.0 | 0.00 | 0.00 | 0.00 | 72 | 1012.1 |
| 20260906051550 | 72 | 221 | 1.0 | 2.0 | 0.00 | 0.00 | 0.00 | 74 | 1012.4 |
| 20260906050108 | 72 | 205 | 1.0 | 2.0 | 0.00 | 0.00 | 0.00 | 77 | 1012.4 |
| 20260906044543 | 73 | 208 | 0.0 | 0.0 | 0.00 | 0.00 | 0.00 | 76 | 1012.4 |
| 20260906043046 | 73 | 254 | 0.0 | 0.0 | 0.00 | 0.00 | 0.00 | 75 | 1012.3 |
| 20260906041542 | 73 | 254 | 0.0 | 0.0 | 0.00 | 0.00 | 0.00 | 76 | 1012.2 |
| 20260906040045 | 73 | 215 | 0.0 | 0.0 | 0.00 | 0.00 | 0.00 | 76 | 1012.0 |
| 20260906034544 | 73 | 244 | 0.0 | 2.0 | 0.00 | 0.00 | 0.00 | 78 | 1011.9 |
| 20260906033040 | 74 | 209 | 1.0 | 2.0 | 0.00 | 0.00 | 0.00 | 78 | 1011.9 |
| 20260906031544 | 74 | 219 | 1.0 | 3.0 | 0.00 | 0.00 | 0.00 | 77 | 1011.7 |
| 20260906030039 | 74 | 198 | 1.0 | 2.0 | 0.00 | 0.00 | 0.00 | 77 | 1011.5 |
| 20260906024539 | 75 | 211 | 0.0 | 2.0 | 0.00 | 0.00 | 0.00 | 76 | 1011.4 |
| 20260906023038 | 75 | 234 | 2.0 | 4.0 | 0.00 | 0.00 | 0.00 | 76 | 1011.4 |
| 20260906021541 | 75 | 261 | 4.0 | 8.0 | 0.00 | 0.00 | 0.00 | 78 | 1011.4 |
| 20260906020036 | 75 | 309 | 2.0 | 5.0 | 0.00 | 0.00 | 0.00 | 76 | 1011.5 |
| 20260906014535 | 75 | 273 | 4.0 | 11.0 | 0.00 | 0.00 | 0.00 | 76 | 1011.5 |
| 20260906013035 | 76 | 239 | 8.0 | 11.0 | 0.00 | 0.00 | 0.00 | 75 | 1011.4 |
| 20260906011537 | 78 | 265 | 4.0 | 8.0 | 0.00 | 0.00 | 0.00 | 70 | 1011.4 |
| 20260906010033 | 77 | 257 | 3.0 | 13.0 | 0.00 | 0.00 | 0.00 | 71 | 1011.2 |
| 20260906004536 | 75 | 290 | 9.0 | 15.0 | 0.00 | 0.00 | 0.00 | 77 | 1011.2 |
| 20260906003034 | 75 | 251 | 11.0 | 17.0 | 0.00 | 0.00 | 0.00 | 76 | 1011.2 |
| 20260906001532 | 75 | 255 | 12.0 | 17.0 | 0.00 | 0.00 | 0.00 | 76 | 1011.2 |
| 20260906000032 | 76 | 246 | 9.0 | 14.0 | 0.00 | 0.00 | 0.00 | 76 | 1011.2 |
| 20260905234533 | 77 | 267 | 10.0 | 14.0 | 0.00 | 0.00 | 0.00 | 71 | 1011.2 |
| 20260905233030 | 78 | 244 | 9.0 | 13.0 | 0.00 | 0.00 | 0.00 | 68 | 1011.3 |
| 20260905231528 | 78 | 230 | 5.0 | 10.0 | 0.00 | 0.00 | 0.00 | 68 | 1011.3 |
| 20260905230026 | 78 | 239 | 6.0 | 11.0 | 0.00 | 0.00 | 0.00 | 67 | 1011.3 |
| 20260905224525 | 77 | 224 | 8.0 | 14.0 | 0.00 | 0.00 | 0.00 | 70 | 1011.5 |
| 20260905223021 | 77 | 249 | 4.0 | 10.0 | 0.00 | 0.00 | 0.00 | 69 | 1011.8 |
| 20260905221517 | 77 | 273 | 8.0 | 12.0 | 0.00 | 0.00 | 0.00 | 70 | 1011.9 |
| 20260905220013 | 77 | 207 | 6.0 | 11.0 | 0.00 | 0.00 | 0.00 | 71 | 1012.1 |
| 20260905214510 | 76 | 259 | 6.0 | 12.0 | 0.00 | 0.00 | 0.00 | 74 | 1012.3 |
| 20260905213006 | 79 | 200 | 5.0 | 10.0 | 0.00 | 0.00 | 0.00 | 68 | 1012.5 |
| 20260905211505 | 78 | 213 | 3.0 | 7.0 | 0.00 | 0.00 | 0.00 | 69 | 1012.5 |
| 20260905210005 | 77 | 244 | 6.0 | 10.0 | 0.00 | 0.00 | 0.00 | 71 | 1012.7 |
| 20260905204600 | 77 | 224 | 5.0 | 9.0 | 0.00 | 0.00 | 0.00 | 70 | 1012.8 |
| 20260905203102 | 78 | 225 | 3.0 | 7.0 | 0.00 | 0.00 | 0.00 | 71 | 1013.0 |
| 20260905201605 | 78 | 202 | 3.0 | 6.0 | 0.00 | 0.00 | 0.00 | 69 | 1013.1 |
| 20260905200059 | 77 | 202 | 3.0 | 7.0 | 0.00 | 0.00 | 0.00 | 69 | 1013.2 |
| 20260905194558 | 76 | 213 | 4.0 | 7.0 | 0.00 | 0.00 | 0.00 | 73 | 1013.5 |
| 20260905193053 | 76 | 209 | 4.0 | 8.0 | 0.00 | 0.00 | 0.00 | 71 | 1013.8 |
| 20260905191558 | 77 | 250 | 3.0 | 7.0 | 0.00 | 0.00 | 0.00 | 70 | 1013.8 |
| 20260905190051 | 77 | 212 | 3.0 | 7.0 | 0.00 | 0.00 | 0.00 | 68 | 1013.9 |
| 20260905184603 | 76 | 195 | 3.0 | 6.0 | 0.00 | 0.00 | 0.00 | 70 | 1014.1 |
| 20260905183046 | 76 | 185 | 2.0 | 6.0 | 0.00 | 0.00 | 0.00 | 73 | 1014.2 |
| 20260905181544 | 75 | 254 | 2.0 | 5.0 | 0.00 | 0.00 | 0.00 | 73 | 1014.2 |
| 20260905180044 | 74 | 141 | 4.0 | 6.0 | 0.00 | 0.00 | 0.00 | 75 | 1014.2 |
| 20260905174545 | 74 | 186 | 4.0 | 7.0 | 0.00 | 0.00 | 0.00 | 78 | 1014.2 |
| 20260905173039 | 74 | 169 | 4.0 | 7.0 | 0.00 | 0.00 | 0.00 | 78 | 1014.1 |
| 20260905171540 | 74 | 163 | 4.0 | 6.0 | 0.00 | 0.00 | 0.00 | 78 | 1014.1 |
| 20260905170035 | 73 | 140 | 3.0 | 7.0 | 0.00 | 0.00 | 0.00 | 80 | 1014.2 |
| 20260905164535 | 73 | 151 | 2.0 | 4.0 | 0.00 | 0.00 | 0.00 | 78 | 1014.2 |
| 20260905163034 | 73 | 133 | 2.0 | 4.0 | 0.00 | 0.00 | 0.00 | 79 | 1014.1 |
| 20260905161529 | 72 | 96 | 1.0 | 4.0 | 0.00 | 0.00 | 0.00 | 79 | 1014.0 |
| 20260905160040 | 71 | 49 | 2.0 | 5.0 | 0.00 | 0.00 | 0.00 | 81 | 1013.9 |
| 20260905154523 | 71 | 34 | 0.0 | 3.0 | 0.00 | 0.00 | 0.00 | 83 | 1013.8 |
| 20260905153021 | 70 | 325 | 2.0 | 4.0 | 0.00 | 0.00 | 0.00 | 84 | 1013.7 |
| 20260905151519 | 70 | 35 | 2.0 | 4.0 | 0.00 | 0.00 | 0.00 | 85 | 1013.6 |
| 20260905150023 | 69 | 13 | 2.0 | 4.0 | 0.00 | 0.00 | 0.00 | 87 | 1013.5 |
| 20260905144536 | 68 | 348 | 0.0 | 3.0 | 0.00 | 0.00 | 0.00 | 88 | 1013.3 |
| 20260905143020 | 67 | 341 | 1.0 | 4.0 | 0.00 | 0.00 | 0.00 | 89 | 1013.3 |
| 20260905141517 | 66 | 332 | 1.0 | 2.0 | 0.00 | 0.00 | 0.00 | 90 | 1013.2 |
| 20260905140012 | 66 | 298 | 0.0 | 1.0 | 0.00 | 0.00 | 0.00 | 90 | 1013.0 |
| 20260905134515 | 65 | 298 | 0.0 | 1.0 | 0.00 | 0.00 | 0.00 | 90 | 1012.8 |
| 20260905133010 | 66 | 313 | 0.0 | 2.0 | 0.00 | 0.00 | 0.00 | 90 | 1012.8 |
| 20260905131510 | 66 | 292 | 2.0 | 3.0 | 0.00 | 0.00 | 0.00 | 90 | 1012.6 |
| 20260905130008 | 66 | 288 | 0.0 | 3.0 | 0.00 | 0.00 | 0.00 | 90 | 1012.5 |